#timestamp,LO_Frequency,Hit,StdDev 
1506481215.6,286047002.6,N
1506481235.4,286047002.5,N
1506481255.2,286047002.2,N
1506481275.1,286047004.4,N
1506481276.0,286047004.4,N
1506481295.8,286047005.3,N
1506481315.6,286047004.8,N
1506481335.4,286047007.4,N
1506481355.3,286047002.9,N
1506481375.1,286047005.4,N
1506481395.8,286047005.0,N
1506481415.7,286047003.6,N
1506481435.5,286047004.1,N
1506481455.3,286047003.1,N
1506481475.2,286047003.8,N
1506481495.9,286047004.1,N
1506481515.7,286047004.2,N
1506481535.6,286047004.0,N
1506481555.4,286047004.0,N
1506481575.2,286047001.3,N
1506481595.0,286047001.6,N
1506481596.0,286047001.6,N
1506481615.8,286047000.6,N
1506481635.6,286047002.4,N
1506481655.4,286047000.3,N
1506481675.3,286047000.5,N
1506481695.1,286047001.0,N
1506481715.8,286046998.6,N
1506481735.7,286046995.8,N
1506481755.5,286046996.0,N
1506481775.3,286046995.7,N
1506481795.2,286046996.2,N
1506481815.9,286046994.9,N
1506481835.7,286046997.5,N
1506481855.6,286046995.3,N
1506481875.4,286046994.9,N
1506481895.2,286046995.7,N
1506481915.0,286046995.7,N
1506481916.0,286046995.7,N
1506481935.8,286046993.3,N
1506481955.6,286046993.3,N
1506481975.4,286046994.5,N
1506481995.3,286046992.1,N
1506482015.1,286046992.6,N
1506482035.8,286046994.3,N
1506482055.7,286046992.3,N
1506482075.5,286046993.4,N
1506482095.3,286046996.3,N
1506482115.2,286046993.9,N
1506482135.9,286046993.7,N
1506482155.7,286046993.4,N
1506482175.6,286046996.3,N
1506482195.4,286046993.4,N
1506482215.2,286046993.5,N
1506482235.0,286046993.8,N
1506482236.0,286046993.8,N
1506482255.8,286046994.6,N
1506482275.6,286046992.7,Y
1506482295.5,286046997.0,P
1506482315.3,286047000.8,N
1506482335.1,286047000.0,N
1506482355.8,286046998.6,N
1506482375.7,286047000.5,N
1506482395.5,286046998.4,N
1506482415.3,286047002.3,N
1506482435.2,286047004.8,N
1506482455.9,286047004.8,N
1506482475.7,286047009.1,N
1506482495.6,286047006.1,N
1506482515.4,286047004.5,N
1506482535.2,286047006.5,N
1506482555.1,286047008.1,N
1506482556.0,286047008.1,N
1506482575.8,286047007.7,N
1506482595.6,286047006.9,N
1506482615.5,286047007.0,N
1506482635.3,286047007.1,N
1506482655.1,286047005.5,N
1506482675.8,286047008.7,N
1506482695.7,286047010.8,N
1506482715.5,286047011.8,N
1506482735.3,286047011.5,N
1506482755.2,286047009.4,N
1506482775.9,286047009.8,N
1506482795.7,286047011.6,N
1506482815.6,286047013.9,N
1506482835.4,286047014.0,N
1506482855.2,286047012.5,N
1506482875.1,286047014.3,Y
1506482876.0,286047014.3,P
1506482895.8,286047012.3,P
1506482915.6,286047012.4,P
1506482935.5,286047009.6,Y
1506482955.3,286047001.9,P
1506482975.1,286047006.0,N
1506482995.9,286047005.2,N
1506483015.7,286047011.3,Y
1506483035.5,286047006.2,P
1506483055.4,286047008.5,P
1506483075.2,286047010.6,P
1506483095.0,286047007.9,Y
1506483095.9,286047007.9,P
1506483115.8,286047000.9,P
1506483135.6,286047001.1,N
1506483155.4,286047000.6,N
1506483175.3,286047002.6,N
1506483195.1,286047003.1,N
1506483196.0,286047003.1,N
1506483215.8,286047003.7,N
1506483235.7,286047004.0,N
1506483255.5,286047002.2,N
1506483275.3,286047002.3,N
1506483295.1,286047004.4,N
1506483315.9,286047002.5,N
1506483335.7,286047000.1,N
1506483355.5,286047000.8,N
1506483375.4,286046999.1,N
1506483395.2,286046996.6,N
1506483415.0,286046999.6,N
1506483415.9,286046999.6,N
1506483435.8,286046998.3,N
1506483455.6,286046998.3,N
1506483475.4,286046996.6,N
1506483495.3,286046997.7,N
1506483515.1,286046996.8,N
1506483516.0,286046996.8,N
1506483535.8,286046995.1,N
1506483555.7,286046996.4,N
1506483575.5,286046993.7,N
1506483595.3,286046993.6,N
1506483615.1,286046996.4,N
1506483635.9,286046994.2,N
1506483655.7,286046994.3,N
1506483675.5,286046991.8,N
1506483695.4,286046993.2,N
1506483715.2,286046990.9,N
1506483735.0,286046992.9,N
1506483735.9,286046992.9,N
1506483755.8,286046991.8,N
1506483775.6,286046994.9,N
1506483795.4,286046997.1,N
1506483815.3,286046999.3,N
1506483835.1,286046999.2,N
1506483836.0,286046999.2,N
1506483855.8,286047000.5,N
1506483875.7,286047002.0,N
1506483895.5,286047002.6,N
1506483915.3,286047002.1,N
1506483935.2,286047001.1,N
1506483955.9,286047000.7,N
1506483975.7,286047001.2,N
1506483995.5,286047001.1,N
1506484015.4,286047000.9,N
1506484035.2,286047001.2,N
1506484055.0,286046997.6,N
1506484055.9,286046997.6,N
1506484075.8,286046995.1,N
1506484095.6,286046997.7,N
1506484115.4,286046997.0,N
1506484135.3,286046997.6,N
1506484155.1,286046995.6,N
1506484175.8,286046995.5,N
1506484195.7,286046995.1,N
1506484215.5,286046996.3,N
1506484235.3,286046993.5,N
1506484255.2,286046994.4,N
1506484275.9,286046990.7,Y
1506484295.7,286046990.8,P
1506484315.6,286046991.4,N
1506484335.4,286046988.7,P
1506484355.2,286046989.7,Y
1506484375.1,286046995.1,P
1506484376.0,286046995.1,P
1506484395.8,286046994.0,P
1506484415.6,286046994.7,Y
1506484435.5,286046999.3,P
1506484455.3,286046999.4,N
1506484475.1,286046999.0,N
1506484495.9,286047000.6,N
1506484515.7,286046999.4,N
1506484535.5,286046998.7,N
1506484555.4,286046998.3,N
1506484575.2,286046998.8,N
1506484595.0,286046996.6,N
1506484595.9,286046996.6,N
1506484615.7,286046999.4,N
1506484635.6,286046995.5,N
1506484655.4,286046996.9,N
1506484675.2,286046996.9,N
1506484695.1,286046996.9,N
1506484696.0,286046996.9,N
1506484715.8,286046996.6,N
1506484735.6,286046995.5,N
1506484755.5,286046997.7,N
1506484775.3,286046996.9,N
1506484795.1,286046997.5,N
